| time (UTC) | temp F | wind direction | speed MPH | gust MPH | rain 1hr in | rain 24hr in | rain mn in | humidity % | barometer mb |
| 20260505003455 | 67 | 214 | 5.0 | 12.0 | 0.00 | 0.00 | 0.00 | 51 | 1000.7 |
| 20260505003254 | 67 | 211 | 6.0 | 12.0 | 0.00 | 0.00 | 0.00 | 51 | 1000.7 |
| 20260505003054 | 67 | 209 | 4.0 | 12.0 | 0.00 | 0.00 | 0.00 | 51 | 1000.7 |
| 20260505002854 | 67 | 205 | 4.0 | 10.0 | 0.00 | 0.00 | 0.00 | 50 | 1000.7 |
| 20260505002653 | 67 | 201 | 4.0 | 10.0 | 0.00 | 0.00 | 0.00 | 50 | 1000.7 |
| 20260505002453 | 67 | 198 | 4.0 | 10.0 | 0.00 | 0.00 | 0.00 | 50 | 1000.7 |
| 20260505002253 | 67 | 218 | 4.0 | 12.0 | 0.00 | 0.00 | 0.00 | 49 | 1000.7 |
| 20260505002053 | 67 | 211 | 6.0 | 12.0 | 0.00 | 0.00 | 0.00 | 49 | 1000.7 |
| 20260505001852 | 68 | 218 | 5.0 | 12.0 | 0.00 | 0.00 | 0.00 | 49 | 1000.7 |
| 20260505001652 | 68 | 214 | 5.0 | 12.0 | 0.00 | 0.00 | 0.00 | 49 | 1000.7 |
| 20260505001452 | 68 | 221 | 4.0 | 12.0 | 0.00 | 0.00 | 0.00 | 48 | 1000.7 |
| 20260505001251 | 68 | 221 | 3.0 | 11.0 | 0.00 | 0.00 | 0.00 | 48 | 1000.7 |
| 20260505001051 | 68 | 218 | 4.0 | 11.0 | 0.00 | 0.00 | 0.00 | 48 | 1000.7 |
| 20260505000851 | 68 | 220 | 5.0 | 11.0 | 0.00 | 0.00 | 0.00 | 48 | 1000.7 |
| 20260505000650 | 68 | 226 | 5.0 | 11.0 | 0.00 | 0.00 | 0.00 | 47 | 1000.7 |
| 20260505000450 | 68 | 244 | 3.0 | 11.0 | 0.00 | 0.00 | 0.00 | 47 | 1000.8 |
| 20260505000250 | 68 | 232 | 5.0 | 11.0 | 0.00 | 0.00 | 0.00 | 46 | 1000.8 |
| 20260505000050 | 68 | 227 | 4.0 | 11.0 | 0.00 | 0.00 | 0.00 | 46 | 1000.7 |
| 20260504235849 | 68 | 231 | 4.0 | 11.0 | 0.00 | 0.00 | 0.00 | 46 | 1000.7 |
| 20260504235649 | 68 | 213 | 5.0 | 13.0 | 0.00 | 0.00 | 0.00 | 46 | 1000.7 |
| 20260504235449 | 69 | 215 | 5.0 | 14.0 | 0.00 | 0.00 | 0.00 | 45 | 1000.7 |
| 20260504235248 | 69 | 211 | 4.0 | 14.0 | 0.00 | 0.00 | 0.00 | 45 | 1000.7 |
| 20260504235048 | 69 | 213 | 4.0 | 14.0 | 0.00 | 0.00 | 0.00 | 45 | 1000.7 |
| 20260504234848 | 69 | 215 | 4.0 | 14.0 | 0.00 | 0.00 | 0.00 | 45 | 1000.8 |
| 20260504234647 | 69 | 222 | 3.0 | 14.0 | 0.00 | 0.00 | 0.00 | 44 | 1000.8 |
| 20260504234447 | 69 | 226 | 4.0 | 11.0 | 0.00 | 0.00 | 0.00 | 44 | 1000.8 |
| 20260504234247 | 69 | 218 | 4.0 | 16.0 | 0.00 | 0.00 | 0.00 | 44 | 1000.8 |
| 20260504234047 | 69 | 225 | 5.0 | 16.0 | 0.00 | 0.00 | 0.00 | 43 | 1000.9 |
| 20260504233846 | 69 | 224 | 5.0 | 16.0 | 0.00 | 0.00 | 0.00 | 43 | 1001.0 |
| 20260504233646 | 69 | 210 | 6.0 | 16.0 | 0.00 | 0.00 | 0.00 | 43 | 1001.0 |
| 20260504233446 | 69 | 203 | 7.0 | 16.0 | 0.00 | 0.00 | 0.00 | 42 | 1001.1 |
| 20260504233245 | 70 | 215 | 6.0 | 17.0 | 0.00 | 0.00 | 0.00 | 42 | 1001.1 |
| 20260504233045 | 70 | 198 | 5.0 | 17.0 | 0.00 | 0.00 | 0.00 | 42 | 1001.3 |
| 20260504232845 | 70 | 206 | 6.0 | 19.0 | 0.00 | 0.00 | 0.00 | 41 | 1001.2 |
| 20260504232644 | 70 | 211 | 8.0 | 19.0 | 0.00 | 0.00 | 0.00 | 41 | 1001.2 |
| 20260504232444 | 70 | 205 | 7.0 | 24.0 | 0.00 | 0.00 | 0.00 | 41 | 1001.3 |
| 20260504232244 | 70 | 207 | 8.0 | 24.0 | 0.00 | 0.00 | 0.00 | 40 | 1001.2 |
| 20260504232044 | 70 | 227 | 6.0 | 24.0 | 0.00 | 0.00 | 0.00 | 40 | 1001.1 |
| 20260504231843 | 70 | 231 | 5.0 | 24.0 | 0.00 | 0.00 | 0.00 | 40 | 1001.3 |
| 20260504231643 | 70 | 196 | 7.0 | 24.0 | 0.00 | 0.00 | 0.00 | 40 | 1001.3 |
| 20260504231443 | 70 | 161 | 8.0 | 24.0 | 0.00 | 0.00 | 0.00 | 39 | 1001.1 |
| 20260504231242 | 70 | 162 | 7.0 | 19.0 | 0.00 | 0.00 | 0.00 | 39 | 1001.4 |
| 20260504231042 | 70 | 205 | 7.0 | 20.0 | 0.00 | 0.00 | 0.00 | 39 | 1001.3 |
| 20260504230842 | 70 | 219 | 7.0 | 20.0 | 0.00 | 0.00 | 0.00 | 39 | 1001.5 |
| 20260504230641 | 70 | 189 | 7.0 | 20.0 | 0.00 | 0.00 | 0.00 | 38 | 1001.3 |
| 20260504230441 | 71 | 202 | 8.0 | 30.0 | 0.00 | 0.00 | 0.00 | 38 | 1001.5 |
| 20260504230241 | 71 | 204 | 10.0 | 30.0 | 0.00 | 0.00 | 0.00 | 38 | 1001.4 |
| 20260504230040 | 71 | 213 | 8.0 | 30.0 | 0.00 | 0.00 | 0.00 | 38 | 1001.4 |
| 20260504225840 | 71 | 185 | 8.0 | 30.0 | 0.00 | 0.00 | 0.00 | 38 | 1001.5 |
| 20260504225640 | 71 | 184 | 10.0 | 30.0 | 0.00 | 0.00 | 0.00 | 38 | 1001.5 |
| 20260504225440 | 71 | 197 | 10.0 | 30.0 | 0.00 | 0.00 | 0.00 | 38 | 1001.5 |
| 20260504225239 | 71 | 204 | 7.0 | 27.0 | 0.00 | 0.00 | 0.00 | 39 | 1001.7 |
| 20260504225039 | 71 | 214 | 6.0 | 27.0 | 0.00 | 0.00 | 0.00 | 40 | 1001.7 |
| 20260504224839 | 71 | 219 | 5.0 | 27.0 | 0.00 | 0.00 | 0.00 | 40 | 1001.7 |
| 20260504224638 | 71 | 204 | 8.0 | 27.0 | 0.00 | 0.00 | 0.00 | 39 | 1001.7 |
| 20260504224438 | 71 | 188 | 11.0 | 28.0 | 0.00 | 0.00 | 0.00 | 38 | 1001.7 |
| 20260504224238 | 71 | 191 | 11.0 | 29.0 | 0.00 | 0.00 | 0.00 | 38 | 1001.7 |
| 20260504224038 | 71 | 215 | 7.0 | 29.0 | 0.00 | 0.00 | 0.00 | 38 | 1001.6 |
| 20260504223837 | 71 | 215 | 8.0 | 29.0 | 0.00 | 0.00 | 0.00 | 39 | 1001.7 |
| 20260504223637 | 72 | 179 | 10.0 | 29.0 | 0.00 | 0.00 | 0.00 | 38 | 1001.8 |
| 20260504223437 | 72 | 160 | 9.0 | 29.0 | 0.00 | 0.00 | 0.00 | 38 | 1001.8 |
| 20260504223236 | 72 | 210 | 8.0 | 29.0 | 0.00 | 0.00 | 0.00 | 38 | 1001.8 |
| 20260504223036 | 72 | 219 | 6.0 | 29.0 | 0.00 | 0.00 | 0.00 | 38 | 1001.7 |
| 20260504222836 | 72 | 221 | 8.0 | 29.0 | 0.00 | 0.00 | 0.00 | 38 | 1001.7 |
| 20260504222635 | 72 | 205 | 8.0 | 29.0 | 0.00 | 0.00 | 0.00 | 38 | 1001.8 |
| 20260504222435 | 72 | 195 | 11.0 | 29.0 | 0.00 | 0.00 | 0.00 | 38 | 1001.8 |
| 20260504222235 | 73 | 200 | 11.0 | 27.0 | 0.00 | 0.00 | 0.00 | 38 | 1001.8 |
| 20260504222035 | 73 | 207 | 10.0 | 27.0 | 0.00 | 0.00 | 0.00 | 37 | 1001.8 |
| 20260504221834 | 73 | 204 | 11.0 | 27.0 | 0.00 | 0.00 | 0.00 | 37 | 1001.6 |
| 20260504221634 | 73 | 212 | 10.0 | 27.0 | 0.00 | 0.00 | 0.00 | 37 | 1001.8 |
| 20260504221434 | 74 | 183 | 9.0 | 20.0 | 0.00 | 0.00 | 0.00 | 38 | 1001.7 |
| 20260504221233 | 74 | 190 | 8.0 | 20.0 | 0.00 | 0.00 | 0.00 | 37 | 1001.7 |
| 20260504221033 | 74 | 205 | 7.0 | 20.0 | 0.00 | 0.00 | 0.00 | 38 | 1001.9 |
| 20260504220833 | 74 | 211 | 7.0 | 20.0 | 0.00 | 0.00 | 0.00 | 38 | 1001.6 |
| 20260504220632 | 74 | 209 | 9.0 | 25.0 | 0.00 | 0.00 | 0.00 | 38 | 1001.7 |
| 20260504220432 | 74 | 215 | 7.0 | 25.0 | 0.00 | 0.00 | 0.00 | 39 | 1001.7 |
| 20260504220232 | 74 | 225 | 7.0 | 25.0 | 0.00 | 0.00 | 0.00 | 40 | 1001.7 |
| 20260504220031 | 73 | 192 | 7.0 | 25.0 | 0.00 | 0.00 | 0.00 | 40 | 1001.7 |
| 20260504215831 | 73 | 206 | 10.0 | 25.0 | 0.00 | 0.00 | 0.00 | 39 | 1001.6 |
| 20260504215631 | 73 | 191 | 12.0 | 25.0 | 0.00 | 0.00 | 0.00 | 39 | 1001.7 |
| 20260504215431 | 73 | 195 | 11.0 | 20.0 | 0.00 | 0.00 | 0.00 | 38 | 1001.7 |
| 20260504215230 | 73 | 209 | 8.0 | 32.0 | 0.00 | 0.00 | 0.00 | 40 | 1001.7 |
| 20260504215030 | 73 | 195 | 8.0 | 32.0 | 0.00 | 0.00 | 0.00 | 40 | 1001.7 |
| 20260504214830 | 73 | 231 | 8.0 | 32.0 | 0.00 | 0.00 | 0.00 | 40 | 1001.8 |
| 20260504214629 | 73 | 168 | 10.0 | 32.0 | 0.00 | 0.00 | 0.00 | 40 | 1001.7 |
| 20260504214429 | 73 | 194 | 11.0 | 32.0 | 0.00 | 0.00 | 0.00 | 39 | 1001.8 |
| 20260504214229 | 73 | 210 | 11.0 | 23.0 | 0.00 | 0.00 | 0.00 | 39 | 1001.8 |
| 20260504214028 | 73 | 199 | 9.0 | 23.0 | 0.00 | 0.00 | 0.00 | 39 | 1001.7 |
| 20260504213828 | 73 | 188 | 9.0 | 23.0 | 0.00 | 0.00 | 0.00 | 40 | 1001.8 |
| 20260504213628 | 73 | 210 | 9.0 | 23.0 | 0.00 | 0.00 | 0.00 | 40 | 1001.7 |
| 20260504213428 | 73 | 208 | 9.0 | 23.0 | 0.00 | 0.00 | 0.00 | 40 | 1001.8 |
| 20260504213227 | 73 | 191 | 10.0 | 23.0 | 0.00 | 0.00 | 0.00 | 40 | 1001.6 |
| 20260504213027 | 73 | 223 | 11.0 | 23.0 | 0.00 | 0.00 | 0.00 | 40 | 1001.7 |
| 20260504212827 | 73 | 219 | 10.0 | 23.0 | 0.00 | 0.00 | 0.00 | 40 | 1001.8 |
| 20260504212626 | 73 | 220 | 9.0 | 24.0 | 0.00 | 0.00 | 0.00 | 41 | 1001.8 |
| 20260504212426 | 73 | 179 | 9.0 | 27.0 | 0.00 | 0.00 | 0.00 | 40 | 1001.8 |
| 20260504212226 | 73 | 177 | 9.0 | 27.0 | 0.00 | 0.00 | 0.00 | 40 | 1001.6 |
| 20260504212025 | 73 | 208 | 11.0 | 27.0 | 0.00 | 0.00 | 0.00 | 40 | 1001.6 |
| 20260504211825 | 73 | 195 | 9.0 | 28.0 | 0.00 | 0.00 | 0.00 | 40 | 1001.6 |
| 20260504211625 | 73 | 200 | 12.0 | 28.0 | 0.00 | 0.00 | 0.00 | 41 | 1001.7 |
| 20260504211425 | 73 | 180 | 10.0 | 28.0 | 0.00 | 0.00 | 0.00 | 41 | 1001.7 |
| 20260504211224 | 73 | 183 | 11.0 | 28.0 | 0.00 | 0.00 | 0.00 | 41 | 1001.6 |
| 20260504211024 | 73 | 201 | 9.0 | 28.0 | 0.00 | 0.00 | 0.00 | 41 | 1001.6 |
| 20260504210824 | 73 | 191 | 9.0 | 25.0 | 0.00 | 0.00 | 0.00 | 41 | 1001.7 |
| 20260504210623 | 73 | 200 | 11.0 | 25.0 | 0.00 | 0.00 | 0.00 | 41 | 1001.6 |
| 20260504210423 | 73 | 216 | 9.0 | 23.0 | 0.00 | 0.00 | 0.00 | 42 | 1001.6 |
| 20260504210223 | 74 | 162 | 9.0 | 21.0 | 0.00 | 0.00 | 0.00 | 41 | 1001.6 |
| 20260504210022 | 74 | 166 | 8.0 | 21.0 | 0.00 | 0.00 | 0.00 | 41 | 1001.5 |
| 20260504205822 | 74 | 201 | 8.0 | 22.0 | 0.00 | 0.00 | 0.00 | 41 | 1001.6 |
| 20260504205622 | 74 | 202 | 8.0 | 25.0 | 0.00 | 0.00 | 0.00 | 42 | 1001.5 |
| 20260504205422 | 74 | 210 | 8.0 | 26.0 | 0.00 | 0.00 | 0.00 | 42 | 1001.6 |
| 20260504205221 | 74 | 228 | 9.0 | 26.0 | 0.00 | 0.00 | 0.00 | 41 | 1001.5 |
| 20260504205021 | 74 | 187 | 11.0 | 26.0 | 0.00 | 0.00 | 0.00 | 41 | 1001.6 |
| 20260504204821 | 74 | 162 | 10.0 | 26.0 | 0.00 | 0.00 | 0.00 | 41 | 1001.6 |
| 20260504204620 | 74 | 185 | 9.0 | 26.0 | 0.00 | 0.00 | 0.00 | 43 | 1001.5 |
| 20260504204420 | 74 | 210 | 8.0 | 26.0 | 0.00 | 0.00 | 0.00 | 43 | 1001.6 |
| 20260504204220 | 74 | 213 | 9.0 | 33.0 | 0.00 | 0.00 | 0.00 | 43 | 1001.5 |
| 20260504204019 | 74 | 207 | 8.0 | 33.0 | 0.00 | 0.00 | 0.00 | 43 | 1001.4 |
| 20260504203819 | 74 | 199 | 9.0 | 33.0 | 0.00 | 0.00 | 0.00 | 43 | 1001.6 |
| 20260504203619 | 74 | 216 | 10.0 | 33.0 | 0.00 | 0.00 | 0.00 | 43 | 1001.5 |
| 20260504203419 | 74 | 189 | 12.0 | 33.0 | 0.00 | 0.00 | 0.00 | 42 | 1001.6 |
| 20260504203218 | 74 | 198 | 11.0 | 26.0 | 0.00 | 0.00 | 0.00 | 42 | 1001.5 |
| 20260504203018 | 74 | 200 | 11.0 | 26.0 | 0.00 | 0.00 | 0.00 | 42 | 1001.5 |
| 20260504202818 | 74 | 191 | 9.0 | 27.0 | 0.00 | 0.00 | 0.00 | 42 | 1001.6 |
| 20260504202617 | 74 | 188 | 9.0 | 27.0 | 0.00 | 0.00 | 0.00 | 43 | 1001.6 |
| 20260504202417 | 74 | 213 | 9.0 | 27.0 | 0.00 | 0.00 | 0.00 | 43 | 1001.6 |
| 20260504202217 | 74 | 194 | 12.0 | 27.0 | 0.00 | 0.00 | 0.00 | 42 | 1001.4 |
| 20260504202016 | 74 | 189 | 10.0 | 27.0 | 0.00 | 0.00 | 0.00 | 42 | 1001.6 |
| 20260504201816 | 74 | 196 | 8.0 | 21.0 | 0.00 | 0.00 | 0.00 | 43 | 1001.4 |
| 20260504201616 | 74 | 197 | 9.0 | 21.0 | 0.00 | 0.00 | 0.00 | 43 | 1001.7 |
| 20260504201416 | 74 | 186 | 9.0 | 21.0 | 0.00 | 0.00 | 0.00 | 43 | 1001.8 |
| 20260504201215 | 74 | 186 | 10.0 | 20.0 | 0.00 | 0.00 | 0.00 | 43 | 1001.7 |
| 20260504201015 | 74 | 192 | 9.0 | 21.0 | 0.00 | 0.00 | 0.00 | 44 | 1001.6 |
| 20260504200815 | 74 | 216 | 6.0 | 21.0 | 0.00 | 0.00 | 0.00 | 45 | 1001.7 |
| 20260504200614 | 74 | 192 | 8.0 | 21.0 | 0.00 | 0.00 | 0.00 | 45 | 1001.7 |
| 20260504200414 | 74 | 193 | 8.0 | 21.0 | 0.00 | 0.00 | 0.00 | 45 | 1001.7 |
| 20260504200214 | 74 | 227 | 10.0 | 21.0 | 0.00 | 0.00 | 0.00 | 44 | 1001.7 |
| 20260504200013 | 74 | 213 | 10.0 | 20.0 | 0.00 | 0.00 | 0.00 | 44 | 1001.7 |
| 20260504195813 | 74 | 210 | 9.0 | 29.0 | 0.00 | 0.00 | 0.00 | 45 | 1002.1 |
| 20260504195613 | 74 | 229 | 8.0 | 29.0 | 0.00 | 0.00 | 0.00 | 46 | 1001.7 |
| 20260504195413 | 74 | 226 | 8.0 | 29.0 | 0.00 | 0.00 | 0.00 | 45 | 1001.7 |
| 20260504195212 | 74 | 199 | 9.0 | 29.0 | 0.00 | 0.00 | 0.00 | 45 | 1001.8 |
| 20260504195012 | 74 | 208 | 11.0 | 29.0 | 0.00 | 0.00 | 0.00 | 45 | 1001.9 |
| 20260504194812 | 74 | 220 | 10.0 | 21.0 | 0.00 | 0.00 | 0.00 | 45 | 1001.9 |
| 20260504194611 | 74 | 198 | 9.0 | 19.0 | 0.00 | 0.00 | 0.00 | 45 | 1001.9 |
| 20260504194411 | 74 | 205 | 9.0 | 19.0 | 0.00 | 0.00 | 0.00 | 44 | 1001.8 |
| 20260504194211 | 74 | 196 | 9.0 | 19.0 | 0.00 | 0.00 | 0.00 | 47 | 1001.9 |
| 20260504194010 | 74 | 198 | 7.0 | 30.0 | 0.00 | 0.00 | 0.00 | 47 | 1001.9 |
| 20260504193810 | 74 | 212 | 7.0 | 30.0 | 0.00 | 0.00 | 0.00 | 48 | 1002.0 |
| 20260504193610 | 73 | 197 | 8.0 | 30.0 | 0.00 | 0.00 | 0.00 | 48 | 1001.9 |
| 20260504193410 | 73 | 178 | 12.0 | 30.0 | 0.00 | 0.00 | 0.00 | 47 | 1001.9 |
| 20260504193209 | 73 | 174 | 12.0 | 30.0 | 0.00 | 0.00 | 0.00 | 46 | 1002.0 |
| 20260504193009 | 73 | 200 | 11.0 | 28.0 | 0.00 | 0.00 | 0.00 | 46 | 1002.0 |
| 20260504192809 | 73 | 225 | 9.0 | 26.0 | 0.00 | 0.00 | 0.00 | 47 | 1002.1 |
| 20260504192608 | 73 | 224 | 10.0 | 26.0 | 0.00 | 0.00 | 0.00 | 47 | 1002.0 |
| 20260504192408 | 73 | 210 | 13.0 | 26.0 | 0.00 | 0.00 | 0.00 | 48 | 1002.2 |
| 20260504192208 | 73 | 205 | 7.0 | 26.0 | 0.00 | 0.00 | 0.00 | 48 | 1002.1 |
| 20260504192007 | 73 | 200 | 8.0 | 20.0 | 0.00 | 0.00 | 0.00 | 49 | 1002.2 |
| 20260504191807 | 73 | 213 | 13.0 | 24.0 | 0.00 | 0.00 | 0.00 | 49 | 1002.2 |
| 20260504191607 | 73 | 220 | 8.0 | 24.0 | 0.00 | 0.00 | 0.00 | 49 | 1002.3 |
| 20260504191406 | 72 | 214 | 8.0 | 30.0 | 0.00 | 0.00 | 0.00 | 50 | 1002.2 |
| 20260504191206 | 72 | 194 | 9.0 | 30.0 | 0.00 | 0.00 | 0.00 | 50 | 1002.1 |
| 20260504191006 | 72 | 186 | 11.0 | 30.0 | 0.00 | 0.00 | 0.00 | 50 | 1002.3 |
| 20260504190806 | 72 | 196 | 12.0 | 30.0 | 0.00 | 0.00 | 0.00 | 50 | 1002.3 |
| 20260504190605 | 72 | 203 | 13.0 | 30.0 | 0.00 | 0.00 | 0.00 | 49 | 1002.4 |
| 20260504190405 | 72 | 212 | 11.0 | 25.0 | 0.00 | 0.00 | 0.00 | 49 | 1002.3 |
| 20260504190205 | 72 | 217 | 9.0 | 25.0 | 0.00 | 0.00 | 0.00 | 49 | 1002.4 |
| 20260504190004 | 72 | 227 | 8.0 | 24.0 | 0.00 | 0.00 | 0.00 | 50 | 1002.5 |
| 20260504185804 | 72 | 234 | 9.0 | 24.0 | 0.00 | 0.00 | 0.00 | 48 | 1002.4 |
| 20260504185604 | 72 | 223 | 11.0 | 24.0 | 0.00 | 0.00 | 0.00 | 50 | 1002.4 |
| 20260504185403 | 72 | 220 | 10.0 | 24.0 | 0.00 | 0.00 | 0.00 | 49 | 1002.5 |
| 20260504185203 | 72 | 222 | 10.0 | 25.0 | 0.00 | 0.00 | 0.00 | 50 | 1002.4 |
| 20260504185003 | 73 | 222 | 9.0 | 25.0 | 0.00 | 0.00 | 0.00 | 49 | 1002.5 |
| 20260504184803 | 73 | 214 | 10.0 | 25.0 | 0.00 | 0.00 | 0.00 | 50 | 1002.5 |
| 20260504184602 | 73 | 219 | 8.0 | 25.0 | 0.00 | 0.00 | 0.00 | 50 | 1002.4 |
| 20260504184402 | 73 | 197 | 8.0 | 19.0 | 0.00 | 0.00 | 0.00 | 52 | 1002.5 |
| 20260504184202 | 72 | 204 | 7.0 | 20.0 | 0.00 | 0.00 | 0.00 | 52 | 1002.5 |
| 20260504184001 | 72 | 206 | 5.0 | 20.0 | 0.00 | 0.00 | 0.00 | 53 | 1002.6 |
| 20260504183801 | 71 | 202 | 7.0 | 22.0 | 0.00 | 0.00 | 0.00 | 53 | 1002.5 |
| 20260504183601 | 71 | 209 | 10.0 | 23.0 | 0.00 | 0.00 | 0.00 | 51 | 1002.6 |
| 20260504183400 | 71 | 211 | 10.0 | 27.0 | 0.00 | 0.00 | 0.00 | 51 | 1002.9 |
| 20260504183200 | 71 | 210 | 8.0 | 27.0 | 0.00 | 0.00 | 0.00 | 51 | 1002.7 |
| 20260504183000 | 71 | 221 | 10.0 | 27.0 | 0.00 | 0.00 | 0.00 | 52 | 1002.5 |
| 20260504182800 | 71 | 221 | 11.0 | 27.0 | 0.00 | 0.00 | 0.00 | 50 | 1002.8 |
| 20260504182559 | 71 | 205 | 12.0 | 27.0 | 0.00 | 0.00 | 0.00 | 51 | 1002.8 |
| 20260504182359 | 71 | 218 | 10.0 | 22.0 | 0.00 | 0.00 | 0.00 | 51 | 1002.8 |
| 20260504182159 | 71 | 214 | 9.0 | 22.0 | 0.00 | 0.00 | 0.00 | 51 | 1002.6 |
| 20260504181958 | 71 | 219 | 9.0 | 22.0 | 0.00 | 0.00 | 0.00 | 52 | 1002.7 |
| 20260504181758 | 71 | 205 | 12.0 | 22.0 | 0.00 | 0.00 | 0.00 | 52 | 1002.7 |
| 20260504181558 | 71 | 206 | 11.0 | 22.0 | 0.00 | 0.00 | 0.00 | 50 | 1002.8 |
| 20260504181357 | 71 | 221 | 9.0 | 22.0 | 0.00 | 0.00 | 0.00 | 50 | 1002.9 |
| 20260504181157 | 71 | 207 | 9.0 | 24.0 | 0.00 | 0.00 | 0.00 | 51 | 1003.0 |
| 20260504180957 | 72 | 203 | 8.0 | 24.0 | 0.00 | 0.00 | 0.00 | 51 | 1002.7 |
| 20260504180757 | 72 | 215 | 9.0 | 24.0 | 0.00 | 0.00 | 0.00 | 51 | 1002.7 |
| 20260504180556 | 72 | 217 | 10.0 | 24.0 | 0.00 | 0.00 | 0.00 | 51 | 1002.8 |
| 20260504180356 | 71 | 184 | 10.0 | 25.0 | 0.00 | 0.00 | 0.00 | 52 | 1002.7 |
| 20260504180156 | 72 | 207 | 8.0 | 25.0 | 0.00 | 0.00 | 0.00 | 51 | 1002.9 |
| 20260504175955 | 71 | 217 | 8.0 | 25.0 | 0.00 | 0.00 | 0.00 | 51 | 1002.9 |
| 20260504175755 | 71 | 205 | 11.0 | 25.0 | 0.00 | 0.00 | 0.00 | 52 | 1003.0 |
| 20260504175555 | 71 | 217 | 9.0 | 25.0 | 0.00 | 0.00 | 0.00 | 51 | 1003.0 |
| 20260504175354 | 71 | 217 | 10.0 | 22.0 | 0.00 | 0.00 | 0.00 | 51 | 1003.2 |
| 20260504175154 | 72 | 222 | 7.0 | 22.0 | 0.00 | 0.00 | 0.00 | 51 | 1003.3 |
| 20260504174954 | 71 | 224 | 10.0 | 22.0 | 0.00 | 0.00 | 0.00 | 52 | 1003.3 |
| 20260504174754 | 71 | 213 | 10.0 | 22.0 | 0.00 | 0.00 | 0.00 | 52 | 1003.2 |
| 20260504174553 | 71 | 200 | 7.0 | 22.0 | 0.00 | 0.00 | 0.00 | 52 | 1003.1 |
| 20260504174353 | 71 | 215 | 8.0 | 21.0 | 0.00 | 0.00 | 0.00 | 53 | 1003.2 |
| 20260504174153 | 71 | 222 | 10.0 | 21.0 | 0.00 | 0.00 | 0.00 | 52 | 1003.3 |
| 20260504173952 | 71 | 216 | 10.0 | 21.0 | 0.00 | 0.00 | 0.00 | 53 | 1003.3 |
| 20260504173752 | 71 | 217 | 11.0 | 21.0 | 0.00 | 0.00 | 0.00 | 52 | 1003.4 |
| 20260504173552 | 71 | 221 | 10.0 | 19.0 | 0.00 | 0.00 | 0.00 | 52 | 1003.5 |
| 20260504173351 | 71 | 202 | 9.0 | 20.0 | 0.00 | 0.00 | 0.00 | 52 | 1003.4 |
| 20260504173151 | 71 | 216 | 7.0 | 20.0 | 0.00 | 0.00 | 0.00 | 54 | 1003.5 |
| 20260504172951 | 71 | 189 | 7.0 | 20.0 | 0.00 | 0.00 | 0.00 | 53 | 1003.5 |
| 20260504172751 | 71 | 214 | 8.0 | 20.0 | 0.00 | 0.00 | 0.00 | 53 | 1003.5 |
| 20260504172550 | 71 | 234 | 8.0 | 20.0 | 0.00 | 0.00 | 0.00 | 52 | 1003.7 |
| 20260504172350 | 71 | 250 | 6.0 | 20.0 | 0.00 | 0.00 | 0.00 | 53 | 1003.5 |
| 20260504172150 | 71 | 218 | 7.0 | 20.0 | 0.00 | 0.00 | 0.00 | 53 | 1003.5 |
| 20260504171949 | 71 | 203 | 8.0 | 20.0 | 0.00 | 0.00 | 0.00 | 54 | 1003.7 |
| 20260504171749 | 71 | 190 | 7.0 | 20.0 | 0.00 | 0.00 | 0.00 | 54 | 1003.6 |
| 20260504171549 | 70 | 221 | 8.0 | 20.0 | 0.00 | 0.00 | 0.00 | 54 | 1003.6 |
| 20260504171348 | 70 | 213 | 8.0 | 16.0 | 0.00 | 0.00 | 0.00 | 54 | 1003.7 |
| 20260504171148 | 70 | 212 | 7.0 | 16.0 | 0.00 | 0.00 | 0.00 | 55 | 1003.7 |
| 20260504170948 | 70 | 214 | 7.0 | 22.0 | 0.00 | 0.00 | 0.00 | 55 | 1003.7 |
| 20260504170748 | 70 | 202 | 8.0 | 23.0 | 0.00 | 0.00 | 0.00 | 55 | 1003.8 |
| 20260504170547 | 70 | 200 | 7.0 | 23.0 | 0.00 | 0.00 | 0.00 | 54 | 1003.7 |
| 20260504170347 | 70 | 226 | 8.0 | 23.0 | 0.00 | 0.00 | 0.00 | 54 | 1003.8 |
| 20260504170147 | 70 | 230 | 8.0 | 23.0 | 0.00 | 0.00 | 0.00 | 54 | 1003.9 |
| 20260504160338 | 66 | 218 | 7.0 | 20.0 | 0.00 | 0.00 | 0.00 | 58 | 1004.3 |
| 20260504160138 | 66 | 230 | 6.0 | 20.0 | 0.00 | 0.00 | 0.00 | 57 | 1004.3 |
| 20260504151130 | 64 | 217 | 7.0 | 22.0 | 0.00 | 0.00 | 0.00 | 60 | 1004.7 |
| 20260504150930 | 64 | 219 | 5.0 | 23.0 | 0.00 | 0.00 | 0.00 | 60 | 1004.7 |
| 20260504150729 | 64 | 223 | 6.0 | 23.0 | 0.00 | 0.00 | 0.00 | 60 | 1004.6 |
| 20260504150529 | 64 | 219 | 5.0 | 23.0 | 0.00 | 0.00 | 0.00 | 60 | 1004.7 |
| 20260504150329 | 64 | 208 | 9.0 | 23.0 | 0.00 | 0.00 | 0.00 | 60 | 1004.7 |
| 20260504150129 | 64 | 204 | 10.0 | 21.0 | 0.00 | 0.00 | 0.00 | 60 | 1004.7 |
| 20260504141321 | 61 | 222 | 7.0 | 19.0 | 0.00 | 0.00 | 0.00 | 63 | 1004.7 |
| 20260504141121 | 61 | 216 | 6.0 | 19.0 | 0.00 | 0.00 | 0.00 | 64 | 1004.7 |
| 20260504140921 | 60 | 189 | 7.0 | 21.0 | 0.00 | 0.00 | 0.00 | 64 | 1004.8 |
| 20260504140720 | 60 | 217 | 6.0 | 21.0 | 0.00 | 0.00 | 0.00 | 64 | 1004.7 |
| 20260504140520 | 60 | 207 | 5.0 | 21.0 | 0.00 | 0.00 | 0.00 | 65 | 1004.8 |
| 20260504140320 | 60 | 191 | 8.0 | 22.0 | 0.00 | 0.00 | 0.00 | 65 | 1004.9 |
| 20260504140120 | 60 | 208 | 7.0 | 22.0 | 0.00 | 0.00 | 0.00 | 65 | 1004.9 |
| 20260504130711 | 58 | 212 | 6.0 | 14.0 | 0.00 | 0.00 | 0.00 | 66 | 1005.2 |
| 20260504130511 | 58 | 216 | 6.0 | 14.0 | 0.00 | 0.00 | 0.00 | 66 | 1005.2 |
| 20260504130311 | 58 | 198 | 6.0 | 15.0 | 0.00 | 0.00 | 0.00 | 66 | 1005.2 |
| 20260504130111 | 58 | 207 | 7.0 | 16.0 | 0.00 | 0.00 | 0.00 | 67 | 1005.4 |
| 20260504120250 | 52 | 207 | 5.0 | 15.0 | 0.00 | 0.00 | 0.00 | 72 | 1005.6 |
| 20260504110642 | 49 | 208 | 3.0 | 8.0 | 0.00 | 0.00 | 0.00 | 74 | 1005.7 |
| 20260504110441 | 49 | 182 | 3.0 | 9.0 | 0.00 | 0.00 | 0.00 | 74 | 1005.7 |
| 20260504110241 | 49 | 204 | 2.0 | 9.0 | 0.00 | 0.00 | 0.00 | 74 | 1005.7 |
| 20260504100432 | 49 | 199 | 3.0 | 8.0 | 0.00 | 0.00 | 0.00 | 74 | 1005.7 |
| 20260504100232 | 49 | 201 | 3.0 | 8.0 | 0.00 | 0.00 | 0.00 | 74 | 1005.7 |
| 20260504081816 | 51 | 202 | 5.0 | 15.0 | 0.00 | 0.00 | 0.00 | 70 | 1006.0 |
| 20260504081616 | 51 | 206 | 6.0 | 15.0 | 0.00 | 0.00 | 0.00 | 70 | 1006.0 |
| 20260504081416 | 51 | 192 | 6.0 | 15.0 | 0.00 | 0.00 | 0.00 | 70 | 1006.0 |
| 20260504081216 | 51 | 202 | 5.0 | 13.0 | 0.00 | 0.00 | 0.00 | 70 | 1006.0 |
| 20260504081015 | 51 | 214 | 5.0 | 12.0 | 0.00 | 0.00 | 0.00 | 70 | 1005.9 |
| 20260504080815 | 51 | 227 | 4.0 | 16.0 | 0.00 | 0.00 | 0.00 | 70 | 1006.1 |
| 20260504080615 | 51 | 214 | 4.0 | 16.0 | 0.00 | 0.00 | 0.00 | 70 | 1006.0 |
| 20260504080414 | 51 | 216 | 5.0 | 16.0 | 0.00 | 0.00 | 0.00 | 70 | 1005.9 |
| 20260504080214 | 51 | 211 | 7.0 | 16.0 | 0.00 | 0.00 | 0.00 | 70 | 1006.0 |
| 20260504070405 | 51 | 204 | 5.0 | 14.0 | 0.00 | 0.00 | 0.00 | 72 | 1006.5 |
| 20260504070205 | 51 | 208 | 6.0 | 14.0 | 0.00 | 0.00 | 0.00 | 72 | 1006.5 |
| 20260504060156 | 53 | 210 | 5.0 | 13.0 | 0.00 | 0.00 | 0.00 | 64 | 1006.9 |
| 20260504050748 | 54 | 236 | 6.0 | 19.0 | 0.00 | 0.00 | 0.00 | 62 | 1007.4 |
| 20260504050547 | 54 | 237 | 5.0 | 20.0 | 0.00 | 0.00 | 0.00 | 62 | 1007.4 |
| 20260504050347 | 54 | 149 | 5.0 | 20.0 | 0.00 | 0.00 | 0.00 | 62 | 1007.3 |
| 20260504050147 | 54 | 185 | 6.0 | 20.0 | 0.00 | 0.00 | 0.00 | 62 | 1007.4 |
| 20260504045947 | 54 | 224 | 6.0 | 20.0 | 0.00 | 0.00 | 0.00 | 62 | 1007.4 |
| 20260504045746 | 54 | 205 | 5.0 | 20.0 | 0.00 | 0.00 | 0.00 | 62 | 1007.4 |
| 20260504045546 | 54 | 210 | 6.0 | 15.0 | 0.00 | 0.00 | 0.00 | 62 | 1007.4 |
| 20260504045346 | 54 | 240 | 5.0 | 15.0 | 0.00 | 0.00 | 0.00 | 62 | 1007.4 |
| 20260504045145 | 54 | 217 | 5.0 | 15.0 | 0.00 | 0.00 | 0.00 | 62 | 1007.5 |
| 20260504044945 | 54 | 229 | 5.0 | 15.0 | 0.00 | 0.00 | 0.00 | 62 | 1007.5 |
| 20260504044745 | 54 | 212 | 4.0 | 15.0 | 0.00 | 0.00 | 0.00 | 62 | 1007.5 |
| 20260504044545 | 54 | 178 | 5.0 | 17.0 | 0.00 | 0.00 | 0.00 | 62 | 1007.6 |
| 20260504044344 | 54 | 181 | 6.0 | 17.0 | 0.00 | 0.00 | 0.00 | 62 | 1007.5 |
| 20260504044144 | 54 | 226 | 6.0 | 17.0 | 0.00 | 0.00 | 0.00 | 62 | 1007.5 |
| 20260504043944 | 55 | 217 | 6.0 | 17.0 | 0.00 | 0.00 | 0.00 | 62 | 1007.5 |
| 20260504043743 | 55 | 209 | 6.0 | 17.0 | 0.00 | 0.00 | 0.00 | 62 | 1007.5 |
| 20260504043543 | 55 | 216 | 7.0 | 23.0 | 0.00 | 0.00 | 0.00 | 62 | 1007.5 |
| 20260504043343 | 55 | 215 | 8.0 | 23.0 | 0.00 | 0.00 | 0.00 | 62 | 1007.6 |
| 20260504043142 | 55 | 185 | 7.0 | 23.0 | 0.00 | 0.00 | 0.00 | 62 | 1007.5 |
| 20260504042942 | 55 | 195 | 6.0 | 23.0 | 0.00 | 0.00 | 0.00 | 62 | 1007.4 |
| 20260504042742 | 55 | 225 | 6.0 | 23.0 | 0.00 | 0.00 | 0.00 | 62 | 1007.5 |
| 20260504042541 | 55 | 209 | 5.0 | 17.0 | 0.00 | 0.00 | 0.00 | 62 | 1007.5 |
| 20260504042341 | 55 | 203 | 6.0 | 17.0 | 0.00 | 0.00 | 0.00 | 62 | 1007.5 |
| 20260504042141 | 55 | 201 | 6.0 | 17.0 | 0.00 | 0.00 | 0.00 | 62 | 1007.5 |
| 20260504041941 | 55 | 211 | 7.0 | 17.0 | 0.00 | 0.00 | 0.00 | 62 | 1007.6 |
| 20260504041740 | 55 | 234 | 6.0 | 22.0 | 0.00 | 0.00 | 0.00 | 63 | 1007.6 |
| 20260504041540 | 55 | 211 | 6.0 | 25.0 | 0.00 | 0.00 | 0.00 | 63 | 1007.5 |
| 20260504041340 | 55 | 189 | 7.0 | 25.0 | 0.00 | 0.00 | 0.00 | 63 | 1007.5 |
| 20260504041139 | 55 | 191 | 8.0 | 25.0 | 0.00 | 0.00 | 0.00 | 63 | 1007.4 |
| 20260504040939 | 55 | 199 | 8.0 | 25.0 | 0.00 | 0.00 | 0.00 | 63 | 1007.5 |
| 20260504040739 | 55 | 199 | 7.0 | 25.0 | 0.00 | 0.00 | 0.00 | 63 | 1007.4 |
| 20260504040538 | 55 | 216 | 5.0 | 22.0 | 0.00 | 0.00 | 0.00 | 63 | 1007.5 |
| 20260504040338 | 55 | 195 | 8.0 | 22.0 | 0.00 | 0.00 | 0.00 | 63 | 1007.3 |
| 20260504040138 | 55 | 181 | 9.0 | 22.0 | 0.00 | 0.00 | 0.00 | 63 | 1007.4 |
| 20260504035938 | 55 | 192 | 9.0 | 22.0 | 0.00 | 0.00 | 0.00 | 63 | 1007.4 |
| 20260504035737 | 54 | 190 | 7.0 | 19.0 | 0.00 | 0.00 | 0.00 | 63 | 1007.5 |
| 20260504035537 | 54 | 198 | 9.0 | 19.0 | 0.00 | 0.00 | 0.00 | 63 | 1007.5 |
| 20260504035337 | 54 | 197 | 6.0 | 19.0 | 0.00 | 0.00 | 0.00 | 62 | 1007.6 |
| 20260504035136 | 54 | 235 | 6.0 | 16.0 | 0.00 | 0.00 | 0.00 | 62 | 1007.5 |
| 20260504034936 | 54 | 234 | 6.0 | 19.0 | 0.00 | 0.00 | 0.00 | 62 | 1007.6 |
| 20260504034736 | 54 | 216 | 5.0 | 19.0 | 0.00 | 0.00 | 0.00 | 61 | 1007.5 |
| 20260504034535 | 54 | 198 | 5.0 | 19.0 | 0.00 | 0.00 | 0.00 | 61 | 1007.5 |
| 20260504034335 | 54 | 197 | 7.0 | 19.0 | 0.00 | 0.00 | 0.00 | 61 | 1007.5 |
| 20260504034135 | 54 | 208 | 7.0 | 19.0 | 0.00 | 0.00 | 0.00 | 60 | 1007.5 |
| 20260504033935 | 54 | 218 | 6.0 | 16.0 | 0.00 | 0.00 | 0.00 | 60 | 1007.5 |
| 20260504033734 | 55 | 179 | 6.0 | 19.0 | 0.00 | 0.00 | 0.00 | 60 | 1007.5 |
| 20260504033534 | 55 | 200 | 7.0 | 19.0 | 0.00 | 0.00 | 0.00 | 59 | 1007.5 |
| 20260504033334 | 55 | 206 | 7.0 | 19.0 | 0.00 | 0.00 | 0.00 | 59 | 1007.5 |
| 20260504033133 | 55 | 214 | 6.0 | 19.0 | 0.00 | 0.00 | 0.00 | 59 | 1007.5 |
| 20260504032933 | 55 | 207 | 6.0 | 19.0 | 0.00 | 0.00 | 0.00 | 59 | 1007.5 |
| 20260504032733 | 55 | 191 | 6.0 | 16.0 | 0.00 | 0.00 | 0.00 | 59 | 1007.5 |
| 20260504032532 | 55 | 193 | 7.0 | 16.0 | 0.00 | 0.00 | 0.00 | 58 | 1007.6 |
| 20260504032332 | 55 | 211 | 6.0 | 21.0 | 0.00 | 0.00 | 0.00 | 58 | 1007.6 |
| 20260504032132 | 55 | 200 | 6.0 | 21.0 | 0.00 | 0.00 | 0.00 | 58 | 1007.6 |
| 20260504031932 | 55 | 206 | 6.0 | 21.0 | 0.00 | 0.00 | 0.00 | 58 | 1007.6 |
| 20260504031731 | 55 | 194 | 8.0 | 21.0 | 0.00 | 0.00 | 0.00 | 58 | 1007.6 |
| 20260504031531 | 55 | 205 | 9.0 | 21.0 | 0.00 | 0.00 | 0.00 | 58 | 1007.6 |
| 20260504031331 | 55 | 204 | 8.0 | 18.0 | 0.00 | 0.00 | 0.00 | 58 | 1007.7 |
| 20260504031130 | 55 | 229 | 6.0 | 18.0 | 0.00 | 0.00 | 0.00 | 58 | 1007.8 |
| 20260504030930 | 55 | 224 | 6.0 | 18.0 | 0.00 | 0.00 | 0.00 | 58 | 1007.7 |
| 20260504030730 | 55 | 215 | 7.0 | 18.0 | 0.00 | 0.00 | 0.00 | 58 | 1007.8 |
| 20260504030529 | 55 | 197 | 7.0 | 18.0 | 0.00 | 0.00 | 0.00 | 58 | 1007.9 |
| 20260504030329 | 55 | 191 | 7.0 | 18.0 | 0.00 | 0.00 | 0.00 | 58 | 1007.8 |
| 20260504030129 | 55 | 236 | 6.0 | 20.0 | 0.00 | 0.00 | 0.00 | 58 | 1007.8 |
| 20260504025929 | 55 | 203 | 6.0 | 20.0 | 0.00 | 0.00 | 0.00 | 58 | 1007.8 |
| 20260504025728 | 55 | 197 | 7.0 | 20.0 | 0.00 | 0.00 | 0.00 | 57 | 1007.7 |
| 20260504025528 | 55 | 195 | 7.0 | 20.0 | 0.00 | 0.00 | 0.00 | 57 | 1007.7 |
| 20260504025328 | 55 | 178 | 7.0 | 20.0 | 0.00 | 0.00 | 0.00 | 57 | 1007.7 |
| 20260504025127 | 55 | 204 | 6.0 | 18.0 | 0.00 | 0.00 | 0.00 | 57 | 1007.7 |
| 20260504024927 | 55 | 213 | 7.0 | 19.0 | 0.00 | 0.00 | 0.00 | 57 | 1007.6 |
| 20260504024727 | 55 | 222 | 6.0 | 21.0 | 0.00 | 0.00 | 0.00 | 57 | 1007.8 |
| 20260504024526 | 55 | 222 | 6.0 | 22.0 | 0.00 | 0.00 | 0.00 | 57 | 1007.8 |
| 20260504024326 | 55 | 196 | 8.0 | 22.0 | 0.00 | 0.00 | 0.00 | 57 | 1007.8 |
| 20260504024126 | 55 | 198 | 8.0 | 22.0 | 0.00 | 0.00 | 0.00 | 57 | 1007.7 |
| 20260504023926 | 55 | 187 | 10.0 | 24.0 | 0.00 | 0.00 | 0.00 | 56 | 1007.7 |
| 20260504023725 | 55 | 217 | 8.0 | 24.0 | 0.00 | 0.00 | 0.00 | 56 | 1007.8 |
| 20260504023525 | 55 | 201 | 8.0 | 24.0 | 0.00 | 0.00 | 0.00 | 56 | 1007.7 |
| 20260504023325 | 55 | 195 | 9.0 | 24.0 | 0.00 | 0.00 | 0.00 | 57 | 1007.8 |
| 20260504023124 | 55 | 197 | 7.0 | 24.0 | 0.00 | 0.00 | 0.00 | 57 | 1007.7 |
| 20260504022924 | 55 | 202 | 6.0 | 21.0 | 0.00 | 0.00 | 0.00 | 57 | 1007.8 |
| 20260504022724 | 55 | 209 | 6.0 | 21.0 | 0.00 | 0.00 | 0.00 | 57 | 1007.9 |
| 20260504022523 | 55 | 201 | 7.0 | 21.0 | 0.00 | 0.00 | 0.00 | 57 | 1007.8 |
| 20260504022323 | 55 | 193 | 8.0 | 21.0 | 0.00 | 0.00 | 0.00 | 57 | 1007.8 |
| 20260504022123 | 55 | 208 | 5.0 | 16.0 | 0.00 | 0.00 | 0.00 | 57 | 1007.8 |
| 20260504021923 | 55 | 230 | 5.0 | 17.0 | 0.00 | 0.00 | 0.00 | 57 | 1007.8 |
| 20260504021722 | 55 | 219 | 6.0 | 17.0 | 0.00 | 0.00 | 0.00 | 57 | 1007.8 |
| 20260504021522 | 55 | 201 | 7.0 | 17.0 | 0.00 | 0.00 | 0.00 | 57 | 1007.8 |
| 20260504021322 | 55 | 179 | 6.0 | 17.0 | 0.00 | 0.00 | 0.00 | 57 | 1007.8 |
| 20260504021121 | 55 | 205 | 6.0 | 17.0 | 0.00 | 0.00 | 0.00 | 57 | 1007.9 |
| 20260504020921 | 55 | 193 | 10.0 | 21.0 | 0.00 | 0.00 | 0.00 | 57 | 1007.8 |
| 20260504020721 | 55 | 205 | 6.0 | 21.0 | 0.00 | 0.00 | 0.00 | 57 | 1007.8 |
| 20260504020520 | 55 | 205 | 5.0 | 21.0 | 0.00 | 0.00 | 0.00 | 58 | 1007.8 |
| 20260504020320 | 55 | 204 | 6.0 | 21.0 | 0.00 | 0.00 | 0.00 | 57 | 1007.8 |
| 20260504020120 | 55 | 215 | 7.0 | 21.0 | 0.00 | 0.00 | 0.00 | 57 | 1007.8 |
| 20260504015920 | 55 | 208 | 6.0 | 19.0 | 0.00 | 0.00 | 0.00 | 57 | 1007.8 |
| 20260504015719 | 54 | 203 | 5.0 | 19.0 | 0.00 | 0.00 | 0.00 | 58 | 1007.8 |
| 20260504015519 | 55 | 220 | 6.0 | 16.0 | 0.00 | 0.00 | 0.00 | 58 | 1007.8 |
| 20260504015319 | 55 | 210 | 6.0 | 16.0 | 0.00 | 0.00 | 0.00 | 58 | 1007.8 |
| 20260504015118 | 55 | 188 | 7.0 | 16.0 | 0.00 | 0.00 | 0.00 | 58 | 1007.8 |
| 20260504014918 | 54 | 211 | 7.0 | 17.0 | 0.00 | 0.00 | 0.00 | 57 | 1007.8 |
| 20260504014718 | 54 | 197 | 7.0 | 17.0 | 0.00 | 0.00 | 0.00 | 58 | 1007.9 |
| 20260504014517 | 54 | 213 | 7.0 | 17.0 | 0.00 | 0.00 | 0.00 | 58 | 1007.8 |
| 20260504014317 | 54 | 196 | 6.0 | 18.0 | 0.00 | 0.00 | 0.00 | 58 | 1007.9 |
| 20260504014117 | 54 | 188 | 7.0 | 19.0 | 0.00 | 0.00 | 0.00 | 58 | 1007.8 |
| 20260504013917 | 54 | 205 | 6.0 | 19.0 | 0.00 | 0.00 | 0.00 | 58 | 1007.9 |
| 20260504013716 | 54 | 189 | 5.0 | 19.0 | 0.00 | 0.00 | 0.00 | 58 | 1007.8 |
| 20260504013516 | 54 | 208 | 6.0 | 19.0 | 0.00 | 0.00 | 0.00 | 58 | 1007.8 |
| 20260504013316 | 54 | 197 | 6.0 | 15.0 | 0.00 | 0.00 | 0.00 | 58 | 1007.8 |
| 20260504013115 | 54 | 190 | 5.0 | 15.0 | 0.00 | 0.00 | 0.00 | 58 | 1007.7 |
| 20260504012915 | 54 | 178 | 5.0 | 17.0 | 0.00 | 0.00 | 0.00 | 57 | 1007.7 |
| 20260504012715 | 54 | 194 | 6.0 | 17.0 | 0.00 | 0.00 | 0.00 | 57 | 1007.8 |
| 20260504012514 | 55 | 173 | 7.0 | 17.0 | 0.00 | 0.00 | 0.00 | 57 | 1007.6 |
| 20260504012314 | 55 | 195 | 6.0 | 17.0 | 0.00 | 0.00 | 0.00 | 57 | 1007.7 |
| 20260504012114 | 55 | 206 | 7.0 | 17.0 | 0.00 | 0.00 | 0.00 | 57 | 1007.7 |
| 20260504011914 | 55 | 197 | 7.0 | 15.0 | 0.00 | 0.00 | 0.00 | 57 | 1007.7 |
| 20260504011713 | 55 | 213 | 6.0 | 15.0 | 0.00 | 0.00 | 0.00 | 57 | 1007.7 |
| 20260504011513 | 55 | 205 | 4.0 | 16.0 | 0.00 | 0.00 | 0.00 | 57 | 1007.7 |
| 20260504011313 | 55 | 202 | 6.0 | 16.0 | 0.00 | 0.00 | 0.00 | 57 | 1007.7 |
| 20260504011112 | 55 | 188 | 6.0 | 16.0 | 0.00 | 0.00 | 0.00 | 57 | 1007.6 |
| 20260504010912 | 55 | 175 | 6.0 | 19.0 | 0.00 | 0.00 | 0.00 | 57 | 1007.5 |
| 20260504010712 | 55 | 193 | 6.0 | 20.0 | 0.00 | 0.00 | 0.00 | 57 | 1007.6 |
| 20260504010511 | 55 | 204 | 6.0 | 20.0 | 0.00 | 0.00 | 0.00 | 57 | 1007.7 |
| 20260504010311 | 55 | 207 | 6.0 | 20.0 | 0.00 | 0.00 | 0.00 | 57 | 1007.6 |
| 20260504010111 | 55 | 198 | 7.0 | 20.0 | 0.00 | 0.00 | 0.00 | 57 | 1007.7 |
| 20260504005911 | 55 | 207 | 7.0 | 15.0 | 0.00 | 0.00 | 0.00 | 57 | 1007.7 |
| 20260504005710 | 55 | 214 | 6.0 | 16.0 | 0.00 | 0.00 | 0.00 | 57 | 1007.8 |
| 20260504005510 | 55 | 198 | 5.0 | 17.0 | 0.00 | 0.00 | 0.00 | 57 | 1007.7 |
| 20260504005310 | 55 | 172 | 5.0 | 20.0 | 0.00 | 0.00 | 0.00 | 57 | 1007.6 |
| 20260504005109 | 55 | 179 | 4.0 | 20.0 | 0.00 | 0.00 | 0.00 | 57 | 1007.7 |
| 20260504004909 | 55 | 199 | 6.0 | 20.0 | 0.00 | 0.00 | 0.00 | 56 | 1007.7 |
| 20260504004709 | 55 | 213 | 6.0 | 20.0 | 0.00 | 0.00 | 0.00 | 56 | 1007.5 |
| 20260504004508 | 56 | 227 | 6.0 | 20.0 | 0.00 | 0.00 | 0.00 | 56 | 1007.7 |
| 20260504004308 | 56 | 206 | 5.0 | 17.0 | 0.00 | 0.00 | 0.00 | 56 | 1007.6 |
| 20260504004108 | 56 | 179 | 6.0 | 17.0 | 0.00 | 0.00 | 0.00 | 56 | 1007.5 |
| 20260504003907 | 56 | 213 | 6.0 | 17.0 | 0.00 | 0.00 | 0.00 | 56 | 1007.6 |
| 20260504003707 | 56 | 204 | 6.0 | 17.0 | 0.00 | 0.00 | 0.00 | 56 | 1007.6 |